This is the latest recevied weather packets stored in our database for station/object EA1CUE-WX. If no packets are shown the sender has not sent any weather packets the latest 10 day(s).
| Time | Temp. | Humidity | Pressure | Rain* | Wind** | Luminosity | Snow |
|---|---|---|---|---|---|---|---|
| 1777920226 | 6.67° C | 1% | 1014.9 hPa | 1.02 mm | - | - | - |
| 1777919926 | 6.67° C | 1% | 1014.9 hPa | 0.76 mm | - | - | - |
| 1777919626 | 6.67° C | 1% | 1014.9 hPa | 0.51 mm | - | - | - |
| 1777919326 | 6.67° C | 1% | 1014.9 hPa | 0.51 mm | - | - | - |
| 1777919026 | 7.22° C | 1% | 1014.9 hPa | 0.25 mm | - | - | - |
| 1777918726 | 7.22° C | 1% | 1014.8 hPa | 0.25 mm | - | - | - |
| 1777918426 | 7.22° C | 1% | 1014.7 hPa | 0 mm | - | - | - |
| 1777918126 | 7.22° C | 1% | 1014.7 hPa | 0.25 mm | - | - | - |
| 1777917826 | 7.22° C | 1% | 1014.6 hPa | 0.25 mm | - | - | - |
| 1777917526 | 7.22° C | 1% | 1014.6 hPa | 0.51 mm | - | - | - |
| 1777917226 | 7.22° C | 1% | 1014.6 hPa | 0.76 mm | - | - | - |
| 1777916926 | 7.22° C | 1% | 1014.6 hPa | 1.02 mm | - | - | - |
| 1777916626 | 7.22° C | 1% | 1014.6 hPa | 1.02 mm | - | - | - |
| 1777916326 | 7.78° C | 1% | 1014.4 hPa | 0.76 mm | - | - | - |
| 1777916026 | 7.78° C | 1% | 1014.3 hPa | 0.76 mm | - | - | - |
| 1777915726 | 8.33° C | 1% | 1014.2 hPa | 0.76 mm | - | - | - |
| 1777915426 | 8.33° C | 1% | 1014 hPa | 0.76 mm | - | - | - |
| 1777915126 | 8.33° C | 1% | 1013.9 hPa | 0.76 mm | - | - | - |
| 1777914826 | 7.78° C | 1% | 1013.9 hPa | 0.76 mm | - | - | - |
| 1777914526 | 7.78° C | 1% | 1014.1 hPa | 0.76 mm | - | - | - |
| 1777914226 | 8.33° C | 1% | 1014 hPa | 0.76 mm | - | - | - |
| 1777913926 | 8.33° C | 1% | 1014.1 hPa | 0.51 mm | - | - | - |
| 1777913626 | 8.89° C | 1% | 1014.1 hPa | 0 mm | - | - | - |
| 1777913326 | 8.89° C | 1% | 1014 hPa | 0 mm | - | - | - |
| 1777913026 | 8.89° C | 1% | 1014 hPa | 0 mm | - | - | - |
* Rain latest hour (hover to see other rain measurements)
** Current wind speed in m/s (hover to see current wind gust speed)